Flag for U.S.A. Weather past 2 weeks in Newark, New Jersey, U.S.A.

Now
76 °F

Light rain. Cloudy.


Feels Like: 78 °F
Forecast: 69 / 83 °F
Wind: 14 mph from Southwest

Location: Newark International Airport

Current Time: Jul 26, 2014 at 12:06:40 PM

Latest Report: Jul 26, 2014 at 10:51 AM


Visibility: 10 mi

Pressure: 30.00 "Hg

Humidity: 60%

Dew point: 61 °F

Location of NewarkLocation

Historic Weather in Newark — Graph

°F

Newark temperature yesterday

Maximum temperature yesterday: 84 °F (at 5:51 PM)
Minimum temperature yesterday: 66 °F (at 5:51 AM)
Average temperature yesterday: 75 °F

Past Weeks' High & Low Weather Summary

 TemperatureHumidityPressure
High92 °F (Jul 23, 5:51 PM)100% (Jul 15, 9:02 PM)30.24 "Hg (Jul 15, 9:02 PM)
Low65 °F (Jul 17, 5:51 AM)32% (Jul 18, 5:51 PM)29.74 "Hg (Jul 15, 4:51 PM)
Average76 °F65%30.01 "Hg
* Reported Jul 11 10:51 AM — Jul 26 10:51 AM, Newark, Weather by CustomWeather, © 2014

Note: Actual official high and low records may vary slightly from our data, if they occured in-between our weather recording intervals... More about our weather records

Advertising

Newark weather history for previous 24 hours

 ConditionsComfort  
Time TempWeatherWind HumidityBarometerVisibility
10:51 AM
Jul 26
76 °FLight rain. Cloudy.14 mph60%30.00 "Hg10 mi
9:51 AM76 °FBroken clouds.10 mph58%29.99 "Hg10 mi
8:51 AM76 °FBroken clouds.5 mph54%30.00 "Hg10 mi
7:51 AM70 °FBroken clouds.7 mph68%30.00 "Hg10 mi
6:51 AM67 °FPartly sunny.5 mph79%30.00 "Hg10 mi
5:51 AM66 °FPartly cloudy.3 mph81%30.00 "Hg10 mi
4:51 AM67 °FPassing clouds.7 mph79%29.99 "Hg10 mi
3:51 AM67 °FPassing clouds.7 mph81%29.99 "Hg10 mi
2:51 AM69 °FPassing clouds.9 mph79%29.99 "Hg10 mi
1:51 AM69 °FPassing clouds.7 mph79%29.99 "Hg10 mi
12:51 AM71 °FPassing clouds.7 mph76%30.00 "Hg10 mi
11:51 PM
Jul 25
72 °FPassing clouds.7 mph73%29.99 "Hg10 mi
10:51 PM73 °FPassing clouds.10 mph66%30.00 "Hg10 mi
9:51 PM74 °FPassing clouds.13 mph60%30.01 "Hg10 mi
8:51 PM75 °FScattered clouds.15 mph58%30.00 "Hg10 mi
7:51 PM78 °FScattered clouds.14 mph52%29.97 "Hg10 mi
6:51 PM80 °FScattered clouds.8 mph47%29.96 "Hg10 mi
5:51 PM84 °FScattered clouds.6 mph36%29.96 "Hg10 mi
4:51 PM83 °FPassing clouds.8 mph36%29.95 "Hg10 mi
3:51 PM83 °FScattered clouds.5 mph36%29.97 "Hg10 mi
2:51 PM83 °FScattered clouds.3 mph36%29.98 "Hg10 mi
1:51 PM81 °FScattered clouds.7 mph35%29.99 "Hg10 mi
12:51 PM80 °FScattered clouds.5 mph38%30.00 "Hg10 mi
Weather by CustomWeather, © 2014

See weather overviewHow to use our weather pages